�������C�����ː����j�^�v���󋵏��
Date,Time,Cs137(Bq/L),Cs134(Bq/L),�S��(Bq/L)
2017/05/16,00:00,0.89,0.093,ND
2017/05/16,00:10,0.86,0.080,ND
2017/05/16,00:20,0.87,0.076,ND
2017/05/16,00:30,0.83,0.075,ND
2017/05/16,00:40,0.80,0.073,ND
2017/05/16,00:50,0.81,0.067,ND
2017/05/16,01:00,0.78,0.056,ND
2017/05/16,01:10,0.77,0.061,ND
2017/05/16,01:20,0.76,0.054,ND
2017/05/16,01:30,0.78,0.049,ND
2017/05/16,01:40,0.81,0.035,ND
2017/05/16,01:50,0.79,0.028,ND
2017/05/16,02:00,0.82,0.045,ND
2017/05/16,02:10,0.81,0.048,ND
2017/05/16,02:20,0.82,0.053,ND
2017/05/16,02:30,0.81,0.052,ND
2017/05/16,02:40,0.80,0.063,ND
2017/05/16,02:50,0.79,0.077,ND
2017/05/16,03:00,0.79,0.079,ND
2017/05/16,03:10,0.84,0.040,ND
2017/05/16,03:20,0.77,0.077,ND
2017/05/16,03:30,0.82,0.038,ND
2017/05/16,03:40,0.80,0.037,9.2
2017/05/16,03:50,0.81,0.031,10
2017/05/16,04:00,0.85,ND,9.0
2017/05/16,04:10,0.85,ND,10
2017/05/16,04:20,0.84,ND,ND
2017/05/16,04:30,0.84,ND,ND
2017/05/16,04:40,0.78,0.044,ND
2017/05/16,04:50,0.83,ND,ND
2017/05/16,05:00,0.75,0.049,ND
2017/05/16,05:10,0.81,ND,ND
2017/05/16,05:20,0.82,ND,ND
2017/05/16,05:30,0.82,ND,ND
2017/05/16,05:40,0.81,ND,ND
2017/05/16,05:50,0.81,ND,ND
2017/05/16,06:00,0.82,ND,ND
2017/05/16,06:10,0.75,0.039,ND
2017/05/16,06:20,0.81,ND,ND
2017/05/16,06:30,0.81,ND,ND
2017/05/16,06:40,0.85,ND,10
2017/05/16,06:50,0.78,0.053,13
2017/05/16,07:00,0.82,0.045,11
2017/05/16,07:10,0.91,ND,13
2017/05/16,07:20,0.93,ND,13
2017/05/16,07:30,0.88,0.060,13
2017/05/16,07:40,0.89,0.075,11
2017/05/16,07:50,0.91,0.086,11
2017/05/16,08:00,0.93,0.097,12
2017/05/16,08:10,0.96,0.10,ND
2017/05/16,08:20,1.0,0.10,ND
2017/05/16,08:30,0.96,0.11,ND
2017/05/16,08:40,1.0,0.060,ND
2017/05/16,08:50,1.1,0.065,ND
2017/05/16,09:00,1.1,0.065,ND
2017/05/16,09:10,0.97,0.088,ND
2017/05/16,09:20,1.1,0.068,ND
2017/05/16,09:30,1.1,0.063,ND
2017/05/16,09:40,1.1,0.062,ND
2017/05/16,09:50,1.1,0.059,ND
2017/05/16,10:00,1.1,0.067,9.5
2017/05/16,10:10,1.1,0.066,ND
2017/05/16,10:20,1.1,0.058,ND
2017/05/16,10:30,1.0,0.081,ND
2017/05/16,10:40,1.0,0.095,ND
2017/05/16,10:50,1.0,0.10,ND
2017/05/16,11:00,-,-,-
2017/05/16,11:10,-,-,-
2017/05/16,11:20,-,-,-
2017/05/16,11:30,-,-,-
2017/05/16,11:40,-,-,-
2017/05/16,11:50,-,-,-
2017/05/16,12:00,1.0,0.10,ND
2017/05/16,12:10,0.99,0.10,9.7
2017/05/16,12:20,1.0,0.088,11
2017/05/16,12:30,1.1,0.050,10
2017/05/16,12:40,1.0,0.074,12
2017/05/16,12:50,1.1,0.037,13
2017/05/16,13:00,1.1,0.030,11
2017/05/16,13:10,1.0,0.057,9.2
2017/05/16,13:20,1.0,0.070,ND
2017/05/16,13:30,0.99,0.071,ND
2017/05/16,13:40,0.99,0.066,ND
2017/05/16,13:50,0.98,0.073,ND
2017/05/16,14:00,1.1,0.052,ND
2017/05/16,14:10,1.1,0.041,ND
2017/05/16,14:20,1.1,0.036,ND
2017/05/16,14:30,1.0,0.037,ND
2017/05/16,14:40,1.0,0.036,ND
2017/05/16,14:50,0.91,0.046,ND
2017/05/16,15:00,0.93,0.046,ND
2017/05/16,15:10,0.89,0.057,ND
2017/05/16,15:20,0.88,0.063,ND
2017/05/16,15:30,0.98,0.035,ND
2017/05/16,15:40,0.97,0.044,ND
2017/05/16,15:50,0.88,0.069,ND
2017/05/16,16:00,0.86,0.075,ND
2017/05/16,16:10,0.87,0.074,ND
2017/05/16,16:20,0.89,0.064,ND
2017/05/16,16:30,0.91,0.066,ND
2017/05/16,16:40,0.93,0.068,ND
2017/05/16,16:50,0.95,0.073,ND
2017/05/16,17:00,0.94,0.082,ND
2017/05/16,17:10,0.91,0.087,ND
2017/05/16,17:20,0.91,0.086,ND
2017/05/16,17:30,0.89,0.088,ND
2017/05/16,17:40,0.91,0.088,ND
2017/05/16,17:50,0.92,0.057,ND
2017/05/16,18:00,0.84,0.069,ND
2017/05/16,18:10,0.86,0.061,ND
2017/05/16,18:20,0.83,0.063,ND
2017/05/16,18:30,0.82,0.055,ND
2017/05/16,18:40,0.83,0.051,ND
2017/05/16,18:50,0.82,0.048,ND
2017/05/16,19:00,0.90,0.035,ND
2017/05/16,19:10,0.84,0.066,ND
2017/05/16,19:20,0.85,0.061,ND
2017/05/16,19:30,0.92,0.028,ND
2017/05/16,19:40,0.89,0.038,ND
2017/05/16,19:50,0.89,0.062,ND
2017/05/16,20:00,0.99,ND,ND
2017/05/16,20:10,0.96,0.033,ND
2017/05/16,20:20,0.97,0.044,ND
2017/05/16,20:30,0.96,0.051,ND
2017/05/16,20:40,0.90,0.063,ND
2017/05/16,20:50,0.87,0.075,ND
2017/05/16,21:00,0.96,0.062,ND
2017/05/16,21:10,0.91,0.071,ND
2017/05/16,21:20,0.91,0.069,ND
2017/05/16,21:30,1.0,0.043,ND
2017/05/16,21:40,1.0,0.043,ND
2017/05/16,21:50,0.93,0.068,ND
2017/05/16,22:00,0.94,0.064,ND
2017/05/16,22:10,0.93,0.062,ND
2017/05/16,22:20,1.0,0.035,ND
2017/05/16,22:30,0.89,0.061,9.9
2017/05/16,22:40,0.90,0.076,10
2017/05/16,22:50,0.87,0.074,ND
2017/05/16,23:00,0.90,0.038,ND
2017/05/16,23:10,0.86,0.045,ND
2017/05/16,23:20,0.76,0.061,ND
2017/05/16,23:30,0.84,0.045,ND
2017/05/16,23:40,0.85,0.039,ND
2017/05/16,23:50,0.77,0.062,ND
